This demonstration page uses our WeatherBlox Daily Observations layout. Learn more.

Hourly Observations for December 17, 2016

Temp ( °F °C ) Dew Point ( °F °C ) Humidity (%) Winds ( mph kmh ) Pressure ( in mb ) Visibility ( mi km ) Precip ( " mm )
12:54 am 00:54 Cloudy 21 -6.1 18 -7.8 88 88 NNW 16 26 29.8 1009 10 16.0934 0 0
1:54 am 01:54 Windy with Snow Likely 20 -6.7 16 -8.9 85 85 N 21 33 29.78 1009 7 11.26538 0 0.0254
2:54 am 02:54 Windy with Snow Likely 17 -8.3 13 -10.6 84 84 N 26 43 29.85 1011 4 6.43736 0 0.0254
3:04 am 03:04 Windy with Snow Likely 18 -8 12 -11 79 79 N 22 35 29.88 1012 6 9.65604 0 0
3:54 am 03:54 Windy with Snow Likely 15 -9.4 10 -12.2 80 80 N 20 31 29.88 1012 9 14.48406 0 0.0254
4:05 am 04:05 Windy with Snow Likely 16 -9 10 -12 79 79 N 20 31 29.91 1013 6 9.65604 0 0
4:35 am 04:35 Windy with Snow Likely 14 -10 9 -12.8 80 80 N 22 35 29.94 1014 6 9.65604 0 0.0254
4:54 am 04:54 Windy with Snow Likely 14 -10 9 -12.8 80 80 N 24 39 29.9 1012 6 9.65604 0 0.0254
5:11 am 05:11 Cloudy with Light Snow 14 -10 9 -12.8 80 80 N 16 26 29.97 1015 9 14.48406 0 0.0254
5:29 am 05:29 Windy with Snow Likely 13 -10.6 8 -13.3 81 81 N 26 43 30 1016 4 6.43736 0 0.0254
5:40 am 05:40 Cloudy 12 -11 9 -13 85 85 NNW 18 30 30.03 1017 9 14.48406 0 0
5:49 am 05:49 Windy with Snow Likely 12 -11 7 -14 79 79 N 25 41 30.03 1017 9 14.48406 0 0.0254
5:54 am 05:54 Cloudy 12 -11.1 6 -14.4 77 77 N 29 46 29.96 1015 10 16.0934 0 0.0254
6:54 am 06:54 Cloudy 10 -12.2 5 -15 80 80 NNW 17 28 30.03 1017 10 16.0934 0 0.0254
7:30 am 07:30 Cloudy 9 -12.8 3 -16.1 77 77 NNW 23 37 30.12 1020 10 16.0934 0 0
7:54 am 07:54 Cloudy 8 -13.3 3 -16.1 80 80 N 22 35 30.08 1019 10 16.0934 0 0
8:45 am 08:45 Windy with Snow Likely 7 -13.9 3 -16.1 84 84 N 21 33 30.18 1022 2 3.21868 0 0.0254
8:54 am 08:54 Windy with Snow Likely 7 -13.9 2 -16.7 80 80 N 23 37 30.11 1020 3 4.82802 0 0.0254
9:40 am 09:40 Windy with Snow Likely 6 -14.4 0 -17.8 76 76 N 24 39 30.18 1022 1.75 2.816345 0 0.0254
9:51 am 09:51 Windy with Snow Likely 7 -14 1 -17 78 78 N 23 37 30.21 1023 1 1.60934 0 0.0254
9:54 am 09:54 Windy with Snow Likely 6 -14.4 1 -17.2 79 79 N 23 37 30.15 1021 1 1.60934 0 0.0254
10:29 am 10:29 Windy with Snow Likely 6 -14.4 1 -17.2 79 79 N 21 33 30.27 1025 3 4.82802 0 0.0254
10:40 am 10:40 Windy with Snow Likely 7 -14 1 -17 78 78 N 24 39 30.24 1024 2.5 4.02335 0 0
10:45 am 10:45 Windy with Snow Likely 6 -14.4 0 -17.8 76 76 N 22 35 30.24 1024 4 6.43736 0 0.0254
10:54 am 10:54 Cloudy with Snow 6 -14.4 0 -17.8 76 76 N 24 39 30.16 1021 4 6.43736 0 0.0254
11:00 am 11:00 Cloudy with Snow 6 -14.4 0 -17.8 76 76 NNW 24 39 30.24 1024 2.5 4.02335 0 0.0254
11:10 am 11:10 Cloudy with Snow 7 -14 0 -18 72 72 N 28 44 30.24 1024 1.5 2.41401 0 0
11:54 am 11:54 Cloudy with Snow 5 -15 -1 -18.3 76 76 N 22 35 30.17 1022 1.5 2.41401 0 0.0254
12:16 pm 12:16 Cloudy with Snow 5 -15 0 -18 78 78 N 23 37 30.27 1025 1.25 2.011675 0 0
12:24 pm 12:24 Cloudy with Snow 5 -15 0 -18 78 78 NNW 18 30 30.27 1025 0.75 1.207005 0 0
12:54 pm 12:54 Cloudy with Snow 5 -15 0 -17.8 79 79 N 23 37 30.16 1021 0.75 1.207005 0 0.0254
1:02 pm 13:02 Cloudy with Snow 5 -15 0 -17.8 79 79 N 28 44 30.21 1023 1 1.60934 0 0.0254
1:34 pm 13:34 Cloudy with Snow 5 -15 -1 -18.3 76 76 N 24 39 30.27 1025 2 3.21868 0 0.0254
1:44 pm 13:44 Cloudy with Snow 5 -15 0 -18 78 78 NNW 24 39 30.27 1025 4 6.43736 0 0
1:54 pm 13:54 Cloudy with Snow 6 -14.4 -1 -18.3 73 73 N 23 37 30.19 1022 5 8.0467 0 0.0254
2:54 pm 14:54 Cloudy 5 -15 -2 -18.9 72 72 N 24 39 30.16 1021 10 16.0934 0 0.0254
3:54 pm 15:54 Mostly Cloudy 4 -15.6 -3 -19.4 73 73 NNW 24 39 30.29 1026 10 16.0934 0 0
4:54 pm 16:54 Mostly Cloudy 4 -15.6 -5 -20.6 66 66 N 25 41 30.26 1025 10 16.0934 0 0
5:54 pm 17:54 Partly Cloudy 3 -16.1 -6 -21.1 66 66 N 23 37 30.3 1026 10 16.0934 0 0
6:54 pm 18:54 Clear 2 -16.7 -6 -21.1 69 69 N 16 26 30.4 1029 10 16.0934 0 0
7:54 pm 19:54 Clear 2 -16.7 -7 -21.7 65 65 NNW 17 28 30.42 1030 10 16.0934 0 0
8:54 pm 20:54 Clear 0 -17.8 -10 -23.3 62 62 NNW 14 22 30.45 1031 10 16.0934 0 0
9:54 pm 21:54 Clear -3 -19.4 -12 -24.4 65 65 NNW 17 28 30.48 1032 10 16.0934 0 0
10:54 pm 22:54 Clear -4 -20 -13 -25 65 65 NNW 8 13 30.5 1033 10 16.0934 0 0
11:54 pm 23:54 Clear -5 -20.6 -13 -25 68 68 NW 7 11 30.53 1034 10 16.0934 0 0

Powered by AerisWeather